Regional Weather Roundup
Issued by NWS

Home | Current Version | Previous Version | Graphics & Text | Print | Product List | Glossary On
Versions: 1 2 3 4 5 6 7 8 9 10 11 12 13 14 15 16 17 18 19 20 21 22 23 24 25 26 27 28 29 30 31 32 33 34 35 36 37 38 39 40 41 42 43 44 45 46 47 48 49 50
000
ASUS45 KPSR 271600
RWRAZ

PRELIMINARY ARIZONA REGIONAL HOURLY WEATHER ROUNDUP
NATIONAL WEATHER SERVICE PHOENIX AZ
900 AM MST FRI FEB 27 2015

NOTE: FAIR INDICATES FEW OR NO CLOUDS BELOW 12,000 FEET WITH NO
SIGNIFICANT WEATHER AND/OR OBSTRUCTIONS TO VISIBILITY.

AZZ001>003-036-271700-
NORTHWEST ARIZONA

CITY           SKY/WX    TMP DP  RH WIND       PRES   REMARKS
KINGMAN        MOSUNNY   49  29  46 NE6       29.79R
$$

AZZ004>008-015-016-018-271700-
NORTH CENTRAL ARIZONA

CITY           SKY/WX    TMP DP  RH WIND       PRES   REMARKS
GRAND CANYON   CLOUDY    34  25  69 NE6       29.83R WCI  29
PRESCOTT       PTSUNNY   42  24  49 VRB3      29.81R
FLAGSTAFF      NOT AVBL
PAYSON         PTSUNNY   43  27  52 CALM      29.86R
PAGE           CLOUDY    41  30  65 S5        29.84R
$$

AZZ009>014-017-271700-
NORTHEAST ARIZONA

CITY           SKY/WX    TMP DP  RH WIND       PRES   REMARKS
WINSLOW        NOT AVBL
SAINT JOHNS    CLOUDY    39  29  67 E3        29.83S
WINDOW ROCK    CLOUDY    28  24  85 CALM      29.85S
SHOW LOW       CLOUDY    39  19  45 S14       29.86F WCI  31
$$

AZZ023-271700-
GREATER PHOENIX AREA

CITY           SKY/WX    TMP DP  RH WIND       PRES   REMARKS
PHOENIX        MOSUNNY   58  31  35 E8        29.77R
GLENDALE       MOSUNNY   54  34  47 VRB5      29.80R
LUKE AFB       SUNNY     57  35  43 N5        29.77R
DEER VALLEY    SUNNY     60  26  27 SE10      29.77R
SCOTTSDALE     SUNNY     60  29  30 SE3       29.79S
MESA-FALCON    MOSUNNY   54  28  37 N6        29.78
MESA-GATEWAY   MOSUNNY   54  34  47 SE8       29.80R
CHANDLER       MOSUNNY   57  34  41 NE6       29.79R
$$

AZZ027-028-271700-
SOUTHWEST MARICOPA COUNTY AND PINAL COUNTY

CITY           SKY/WX    TMP DP  RH WIND       PRES   REMARKS
CASA GRANDE    SUNNY     54  28  37 SE6       29.79S
$$

AZZ503-504-507>509-271700-
SOUTHEAST ARIZONA

CITY           SKY/WX    TMP DP  RH WIND       PRES   REMARKS
TUCSON         SUNNY     57  25  29 SE7       29.85S
DAVIS-MONTHAN  SUNNY     57  25  29 SE10      29.83S
RYAN FIELD       N/A     57  30  35 E7        29.83F
NOGALES        SUNNY     57  25  29 S9        29.87S
SIERRA VISTA   MOSUNNY   55  21  26 NE6       29.88S
SAFFORD        MOSUNNY   49  27  42 E15       29.88R
$$

AZZ020-021-025-026-031-271700-
SOUTHWEST ARIZONA

CITY           SKY/WX    TMP DP  RH WIND       PRES   REMARKS
YUMA           MOSUNNY   58  34  40 CALM      29.75R
$$

CAZ031-033-041-043-047-048-061-271700-
SOUTHERN CALIFORNIA

CITY           SKY/WX    TMP DP  RH WIND       PRES   REMARKS
DOWNTOWN L.A.  CLOUDY   N/A N/A N/A E3        29.85R
L.A. AIRPORT   PTSUNNY   56  52  86 E7        29.85R
SAN DIEGO      PTSUNNY   60  48  64 SE12      29.86S
BURBANK        PTSUNNY   56  49  77 CALM      29.84R
ONTARIO        PTSUNNY   53  49  86 CALM      29.86R FOG
RIVERSIDE      PTSUNNY   52  46  80 CALM      29.86R
PALM SPRINGS   SUNNY     61  43  51 CALM      29.75R
EL CENTRO NAS  MOSUNNY   61  33  35 W7        29.74R
IMPERIAL       SUNNY     59  41  51 CALM      29.73R
BLYTHE         SUNNY     56  32  40 CALM      29.74R
$$

NVZ020-UTZ003-271700-
SOUTHERN NEVADA-UTAH

CITY           SKY/WX    TMP DP  RH WIND       PRES   REMARKS
LAS VEGAS      NOT AVBL
SALT LAKE CITY CLOUDY    34  23  64 SE8       29.83S WCI  27
$$

NMZ009-TXZ055-271700-
NEW MEXICO-WEST TEXAS

CITY           SKY/WX    TMP DP  RH WIND       PRES   REMARKS
ALBUQUERQUE    CLOUDY    24  18  77 W7        30.01R WCI  16
EL PASO        CLOUDY    32  23  69 E12       30.06R WCI  23
$$


........................KEY........................
SKY/WX - SKY CONDITION/WEATHER
TMP    - TEMPERATURE IN FAHRENHEIT
DP     - DEW POINT IN FAHRENHEIT
RH     - RELATIVE HUMIDITY IN PERCENT
WIND   - DIRECTION AND SPEED IN MILES PER HOUR (MPH)
VRB    - VARIABLE WIND DIRECTION
PRES   - MEAN SEA LEVEL PRESSURE IN INCHES OF MERCURY
         F - FALLING PRESSURE   R - RISING PRESSURE
         S - STEADY PRESSURE
VSB    - VISIBILITY IN MILES
HX     - HEAT INDEX IN FAHRENHEIT
WCI    - WIND CHILL INDEX IN FAHRENHEIT
TC     - TEMPERATURE IN CELSIUS WHICH IS ALSO KNOWN AS
         TEMPERATURE IN CENTIGRADE
AFB    - AIR FORCE BASE
         LUKE AFB IS LUKE AIR FORCE BASE
         DAVIS-MONTHAN IS DAVIS-MONTHAN AIR FORCE BASE
NAS    - NAVAL AIR STATION
         EL CENTRO NAS IS EL CENTRO NAVAL AIR STATION
N/A    - NOT AVAILABLE


USA.gov is the U.S. government's official web portal to all federal, state and local government web resources and services.